Regional Weather Roundup
Issued by NWS

Home | Current Version | Previous Version | Text Only | Print | Product List | Glossary Off
Versions: 1 2 3 4 5 6 7 8 9 10 11 12 13 14 15 16 17 18 19 20 21 22 23 24 25 26 27 28 29 30 31 32 33 34 35 36 37 38 39 40 41 42 43 44 45 46 47 48 49 50

000
ASUS44 KMEG 270510
RWRTN
TENNESSEE HOURLY STATE WEATHER ROUNDUP
NATIONAL WEATHER SERVICE MEMPHIS TN
1200 AM CDT MON APR 27 2015

TNZ002-004-019-021-049-052-054-088>092-270600-
WEST TENNESSEE

CITY           SKY/WX    TMP DP  RH WIND       PRES   REMARKS
MEMPHIS INTL   MOCLDY    56  47  71 NE8       29.89F
NWS MEMPHIS      N/A     53 N/A N/A MISG        N/A
JACKSON        FOG       46  44  93 CALM      29.92S VSB 1/2
DYERSBURG      CLEAR     48  36  61 CALM      29.94S
UNION CITY     CLEAR     48  32  53 N6        29.93S
PARIS          CLEAR     43  39  87 N5        29.93R
LEXINGTON      CLEAR     45  43  93 CALM      29.90S
SAVANNAH       CLEAR     46  32  57 CALM      29.90S
$$

TNZ008-025-027-028-033-062-065-066-270600-
NORTH MIDDLE TENNESSEE

CITY           SKY/WX    TMP DP  RH WIND       PRES   REMARKS
NASHVILLE      CLEAR     50  47  89 CALM      29.90F
CLARKSVILLE    CLEAR     48  39  71 N9        29.92S
SMYRNA         CLEAR     45  45 100 CALM      29.91F
COOKEVILLE     MOCLDY    41  41 100 CALM      29.89S VSB 1/4
CROSSVILLE     PTCLDY    46  43  89 W7        29.90R FOG
$$

TNZ061-075-076-078-094-096-097-270600-
SOUTH MIDDLE TENNESSEE

CITY           SKY/WX    TMP DP  RH WIND       PRES   REMARKS
FAYETTEVILLE   CLEAR     46  45  93 N3        29.88S
TULLAHOMA      CLEAR     45  45 100 N5        29.88F
WINCHESTER     CLEAR     45  45 100 CALM      29.88F
MCMINNVILLE    MOCLDY    43  43 100 CALM      29.89F VSB 1/2
COLUMBIA       MOCLDY    45  32  61 CALM      29.88F VSB 3/4
SHELBYVILLE      N/A     45  43  93 CALM      29.90F VSB 3/4
$$

TNZ017-018-042-046-047-270600-
NORTHEAST TENNESSEE

CITY           SKY/WX    TMP DP  RH WIND       PRES   REMARKS
TRI CITIES     CLOUDY    50  44  80 N3        29.84S
ELIZABETHTON   CLOUDY    46  43  87 CALM      29.84S
$$

TNZ012-013-036-069-073-074-270600-
CENTRAL EAST TENNESSEE

CITY           SKY/WX    TMP DP  RH WIND       PRES   REMARKS
KNOXVILLE      CLOUDY    53  48  83 SW5       29.85S
OAK RIDGE      CLEAR     50  46  86 CALM      29.87S
GATLINBURG     CLOUDY    52  48  87 CALM      29.85S
MORRISTOWN     CLOUDY    54  48  82 W3        29.86R
$$

TNZ083-085-099-270600-
SOUTHEAST TENNESSEE

CITY           SKY/WX    TMP DP  RH WIND       PRES   REMARKS
CHATTANOOGA    CLEAR     51  46  83 NW3       29.86F
$$

SKY/WX REPORTED AS FAIR MEANS FEW OR NO CLOUDS BELOW
12 THOUSAND FEET.




USA.gov is the U.S. government's official web portal to all federal, state and local government web resources and services.